Weather History for Torrington, WY

Change the Weather History Date:

Saturday, October 6, 2012

  Actual Average Record
Temperature  
Mean Temperature 31 °F 52 °F  
Max Temperature 40 °F 67 °F 85 °F (1999)
Min Temperature 21 °F 37 °F 21 °F (2000)
Degree Days  
Heating Degree Days 34 13  
Month to date heating degree days 107 73  
Since 1 July heating degree days 192 267  
Cooling Degree Days 0 0  
Month to date cooling degree days 0 0  
Year to date cooling degree days 1021 678  
Moisture  
Dew Point 29 °F    
Average Humidity 82    
Maximum Humidity 100    
Minimum Humidity 64    
Precipitation  
Precipitation 0.17 in 0.04 in 0.17 in (2012)
Month to date precipitation 0.28 0.23  
Year to date precipitation 6.31 12.56  
Sea Level Pressure  
Sea Level Pressure 30.34 in    
Wind  
Wind Speed 5 mph (NE)    
Max Wind Speed 13 mph    
Max Gust Speed 15 mph    
Visibility 5 miles    
Events Fog , Snow    
T = Trace of Precipitation, MM = Missing Value Source: NWS Daily Summary

Daily Weather History Graph

Daily Weather History Graph

Search for Another Location

Airport:

Trip Planner

Search our weather history database for the weather conditions in past years. The results will help you decide how hot, cold, wet, or windy it might be!

Date:

Astronomy

Oct. 06, 2012 Rise Set
Actual Time 6:59 AM MDT 6:28 PM MDT
Civil Twilight 6:31 AM MDT 6:56 PM MDT
Nautical Twilight 5:59 AM MDT 7:28 PM MDT
Astronomical Twilight 5:26 AM MDT 8:01 PM MDT
Moon 10:42 PM MDT (10/6) 1:00 PM MDT (10/6)
Length of Visible Light 12h 24m
Length of Day
11h 29m
Waning Gibbous, 65% of the Moon is Illuminated
Oct 6
Waning Gibbous
Oct 8
Last Quarter
Oct 15
New
Oct 21
First Quarter
Oct 29
Full

Hourly Weather History & Observations

Time (MDT) Temp. Windchill Dew Point Humidity Pressure Visibility Wind Dir Wind Speed Gust Speed Precip Events Conditions
12:02 AM 32.0 °F 25.6 °F 30.2 °F 93% 30.30 in 7.0 mi ENE 6.9 mph - 0.00 in Snow Light Snow
12:14 AM 32.0 °F 24.8 °F 30.2 °F 93% 30.29 in 7.0 mi ENE 8.1 mph - 0.00 in Snow Light Snow
12:33 AM 32.0 °F 24.8 °F 30.2 °F 93% 30.29 in 1.8 mi ENE 8.1 mph - 0.01 in Snow Light Snow
12:53 AM 32.0 °F 24.8 °F 30.9 °F 96% 30.36 in 1.2 mi ENE 8.1 mph - 0.02 in Snow Light Snow
1:23 AM 32.0 °F 23.6 °F 30.2 °F 93% 30.28 in 2.0 mi ENE 10.4 mph - 0.00 in Snow Light Snow
1:40 AM 32.0 °F 24.2 °F 30.2 °F 93% 30.29 in 3.0 mi ENE 9.2 mph - 0.01 in Snow Light Snow
1:53 AM 32.0 °F 24.2 °F 30.9 °F 96% 30.36 in 4.0 mi ENE 9.2 mph - 0.01 in Snow Light Snow
2:53 AM 32.0 °F 24.8 °F 30.9 °F 96% 30.35 in 4.0 mi ENE 8.1 mph - 0.00 in Snow Light Snow
3:01 AM 32.0 °F 24.2 °F 30.2 °F 93% 30.27 in 7.0 mi ENE 9.2 mph - 0.00 in Snow Light Snow
3:35 AM 32.0 °F 24.8 °F 30.2 °F 93% 30.27 in 10.0 mi ENE 8.1 mph - 0.00 in   Mostly Cloudy
3:53 AM 32.0 °F 26.4 °F 30.9 °F 96% 30.33 in 10.0 mi ENE 5.8 mph - 0.00 in   Overcast
4:01 AM 32.0 °F 25.6 °F 30.2 °F 93% 30.26 in 10.0 mi ENE 6.9 mph - N/A   Overcast
4:32 AM 32.0 °F 27.5 °F 30.2 °F 93% 30.27 in 4.0 mi NE 4.6 mph - 0.00 in Snow Light Snow
4:53 AM 32.0 °F 25.6 °F 30.9 °F 96% 30.34 in 3.0 mi NE 6.9 mph - 0.00 in Snow Light Snow
5:00 AM 32.0 °F 24.8 °F 30.2 °F 93% 30.27 in 1.8 mi NE 8.1 mph - 0.00 in Snow Light Snow
5:10 AM 32.0 °F 25.6 °F 30.2 °F 93% 30.28 in 1.8 mi NE 6.9 mph - 0.01 in Snow Light Snow
5:53 AM 30.9 °F 25.2 °F 30.0 °F 96% 30.36 in 1.0 mi ENE 5.8 mph - 0.03 in Snow Light Snow
6:19 AM 30.2 °F 23.4 °F 30.2 °F 100% 30.30 in 1.2 mi NE 6.9 mph - 0.01 in Snow Light Snow
6:37 AM 30.2 °F 24.3 °F 30.2 °F 100% 30.30 in 1.5 mi NE 5.8 mph - 0.02 in Snow Light Snow
6:53 AM 30.9 °F 25.2 °F 30.0 °F 96% 30.38 in 2.0 mi NE 5.8 mph - 0.02 in Snow Light Snow
7:08 AM 30.2 °F 24.3 °F 30.2 °F 100% 30.31 in 1.0 mi NNE 5.8 mph - 0.01 in Snow Light Snow
7:18 AM 30.2 °F 23.4 °F 30.2 °F 100% 30.31 in 0.8 mi NNE 6.9 mph - 0.02 in Snow Light Snow
7:34 AM 30.2 °F 23.4 °F 30.2 °F 100% 30.31 in 0.5 mi NNE 6.9 mph - 0.03 in Fog , Snow Snow
7:53 AM 30.0 °F 22.4 °F 30.0 °F 100% 30.40 in 0.5 mi North 8.1 mph - 0.05 in Fog , Snow Snow
8:02 AM 30.2 °F 22.6 °F 30.2 °F 100% 30.32 in 0.8 mi North 8.1 mph - 0.00 in Snow Light Snow
8:53 AM 30.9 °F 24.3 °F 30.0 °F 96% 30.43 in 0.8 mi NNE 6.9 mph - 0.03 in Snow Light Snow
8:58 AM 30.2 °F 24.3 °F 30.2 °F 100% 30.34 in 0.8 mi North 5.8 mph - 0.00 in Snow Light Snow
9:07 AM 30.2 °F 22.6 °F 30.2 °F 100% 30.35 in 1.0 mi NNE 8.1 mph - 0.00 in Snow Light Snow
9:16 AM 30.2 °F 22.6 °F 30.2 °F 100% 30.35 in 0.8 mi NNE 8.1 mph - 0.00 in Snow Light Snow
9:26 AM 30.2 °F 22.6 °F 30.2 °F 100% 30.35 in 0.5 mi NNE 8.1 mph - 0.01 in Fog , Snow Snow
9:53 AM 30.9 °F 23.5 °F 30.0 °F 96% 30.44 in 0.8 mi NNE 8.1 mph - 0.02 in Snow Light Snow
9:59 AM 30.2 °F 22.6 °F 30.2 °F 100% 30.36 in 1.0 mi NNE 8.1 mph - 0.00 in Snow Light Snow
10:32 AM 32.0 °F 24.2 °F 28.4 °F 87% 30.36 in 1.2 mi North 9.2 mph - 0.01 in Snow Light Snow
10:53 AM 32.0 °F 23.6 °F 28.9 °F 88% 30.44 in 1.5 mi NNE 10.4 mph - 0.01 in Snow Light Snow
11:10 AM 32.0 °F 24.2 °F 30.2 °F 93% 30.36 in 2.5 mi NNE 9.2 mph - 0.00 in Snow Light Snow
11:23 AM 32.0 °F 24.2 °F 28.4 °F 87% 30.36 in 1.5 mi NNE 9.2 mph - 0.00 in Snow Light Snow
11:39 AM 32.0 °F 24.2 °F 28.4 °F 87% 30.36 in 3.0 mi NE 9.2 mph - 0.00 in Snow Light Snow
11:53 AM 33.1 °F 27.7 °F 30.0 °F 89% 30.44 in 3.0 mi NE 5.8 mph - 0.00 in Snow Light Snow
12:53 PM 34.0 °F 31.0 °F 30.0 °F 85% 30.43 in 7.0 mi NNE 3.5 mph - 0.00 in Snow Light Snow
1:18 PM 33.8 °F 30.8 °F 28.4 °F 81% 30.35 in 10.0 mi North 3.5 mph - 0.00 in   Overcast
1:36 PM 35.6 °F - 28.4 °F 75% 30.34 in 10.0 mi Calm Calm - 0.00 in   Overcast
1:53 PM 35.1 °F 32.2 °F 30.0 °F 82% 30.40 in 10.0 mi North 3.5 mph - 0.00 in   Overcast
2:37 PM 37.4 °F 34.9 °F 28.4 °F 70% 30.32 in 10.0 mi NNW 3.5 mph - N/A   Overcast
2:53 PM 37.0 °F - 28.9 °F 73% 30.38 in 10.0 mi Calm Calm - N/A   Overcast
3:53 PM 37.9 °F 35.5 °F 27.0 °F 65% 30.36 in 10.0 mi Variable 3.5 mph - N/A   Overcast
5:53 PM 37.0 °F 34.5 °F 27.0 °F 67% 30.34 in 10.0 mi East 3.5 mph - N/A   Scattered Clouds
6:20 PM 35.6 °F 28.0 °F 28.4 °F 75% 30.28 in 10.0 mi South 10.4 mph - N/A   Mostly Cloudy
6:29 PM 33.8 °F 26.4 °F 28.4 °F 81% 30.28 in 10.0 mi South 9.2 mph - N/A   Mostly Cloudy
6:53 PM 32.0 °F 25.6 °F 27.0 °F 82% 30.36 in 10.0 mi SSW 6.9 mph - N/A   Clear
7:53 PM 32.0 °F 28.7 °F 27.0 °F 82% 30.36 in 10.0 mi SSW 3.5 mph - N/A   Clear
8:53 PM 30.0 °F - 26.1 °F 85% 30.35 in 10.0 mi Calm Calm - N/A   Clear
10:53 PM 24.1 °F - 23.0 °F 96% 30.34 in 10.0 mi Calm Calm - N/A   Clear
11:53 PM 25.0 °F 19.3 °F 23.0 °F 92% 30.32 in 10.0 mi SE 4.6 mph - N/A   Clear